Home   Weather   Germany   Freital   Past weeks
Flag for Germany

Past Weather in Freital, Saxony, Germany — Yesterday and Last 2 Weeks

Currently: 64 °F. Sunny. (Weather station: Dresden-Klotzsche, Germany). See more current weather

Past Weather in Freital — Graph

°F

Freital Temperature Yesterday

Maximum temperature yesterday: 81 °F (at 3:20 pm)
Minimum temperature yesterday: 61 °F (at 4:50 am)
Average temperature yesterday: 72 °F

High & Low Weather Summary for the Past Weeks

 TemperatureHumidityPressure
High82 °F (Jul 24, 1:20 pm)100% (Jul 14, 1:50 am)30.21 "Hg (Jul 14, 1:50 am)
Low55 °F (Jul 20, 2:20 am)35% (Jul 24, 4:20 pm)29.71 "Hg (Jul 13, 8:20 pm)
Average68 °F71%30.00 "Hg
* Reported Jul 13 8:20 pm — Jul 28 8:20 pm, Freital. Weather by CustomWeather, © 2021

Note: Actual official high and low records may vary slightly from our data, if they occured in-between our weather recording intervals... More about our weather records

Freital Weather History for the Previous 24 Hours

Scroll right to see more
 ConditionsComfort  
Time TempWeatherWind HumidityBarometerVisibility
8:20 pm
Wed, Jul 28
66 °FSunny.6 mph73%29.92 "Hg10 mi
7:50 pm68 °FSunny.7 mph69%29.89 "Hg10 mi
7:20 pm70 °FPassing clouds.6 mph64%29.89 "HgN/A
6:50 pm68 °FPassing clouds.8 mph69%29.89 "HgN/A
6:20 pm68 °FPassing clouds.9 mph69%29.92 "HgN/A
5:50 pm68 °FPassing clouds.7 mph69%29.92 "HgN/A
5:20 pm66 °FLight rain. Clear.13 mph73%29.92 "HgN/A
4:50 pm68 °FLight rain. Passing clouds.10 mph73%29.92 "HgN/A
4:20 pm70 °FLight rain. Scattered clouds.7 mph64%29.92 "HgN/A
3:50 pm72 °FScattered clouds.7 mph57%29.92 "HgN/A
3:20 pm73 °FScattered clouds.10 mph53%29.92 "HgN/A
2:50 pm73 °FScattered clouds.9 mph53%29.92 "HgN/A
2:20 pm75 °FScattered clouds.7 mph54%29.92 "HgN/A
1:50 pm73 °FScattered clouds.7 mph57%29.92 "HgN/A
1:20 pm73 °FPartly sunny.7 mph65%29.92 "HgN/A
12:50 pm73 °FPartly sunny.5 mph61%29.92 "HgN/A
12:20 pm73 °FScattered clouds.9 mph61%29.92 "HgN/A
11:50 am73 °FScattered clouds.8 mph65%29.92 "HgN/A
11:20 am70 °FScattered clouds.7 mph73%29.92 "HgN/A
10:50 am68 °FPassing clouds.6 mph83%29.92 "HgN/A
10:20 am68 °FLight rain. Passing clouds.6 mph83%29.92 "HgN/A
9:50 am68 °FLight rain. Passing clouds.7 mph78%29.92 "HgN/A
9:20 am68 °FPassing clouds.8 mph78%29.89 "HgN/A
8:50 am68 °FPassing clouds.6 mph78%29.89 "HgN/A
8:20 am66 °FPassing clouds.3 mph83%29.89 "HgN/A
7:50 am66 °FPassing clouds.3 mph83%29.89 "HgN/A
7:20 am64 °FPassing clouds.5 mph94%29.89 "HgN/A
6:50 am64 °FSunny.5 mph88%29.89 "Hg10 mi
6:20 am63 °FSunny.2 mph94%29.89 "Hg10 mi
5:50 am64 °FPassing clouds.5 mph88%29.89 "HgN/A
5:20 am66 °FLight rain. Passing clouds.8 mph78%29.92 "HgN/A
4:50 am64 °FClear.7 mph88%29.89 "Hg10 mi
4:20 am64 °FClear.3 mph88%29.89 "Hg10 mi
3:50 am64 °FClear.1 mph88%29.89 "Hg10 mi
3:20 am66 °FClear.2 mph83%29.89 "Hg10 mi
2:50 am66 °FPassing clouds.3 mph83%29.89 "HgN/A
2:20 am66 °FClear.2 mph78%29.89 "Hg10 mi
1:50 am68 °FClear.1 mph73%29.89 "Hg10 mi
1:20 am68 °FClear.1 mph73%29.92 "Hg10 mi
12:50 am68 °FClear.2 mph73%29.92 "Hg10 mi
12:20 am70 °FClear.3 mph69%29.92 "Hg10 mi
11:50 pm
Tue, Jul 27
70 °FClear.3 mph69%29.92 "Hg10 mi
11:20 pm72 °FClear.3 mph61%29.92 "Hg10 mi
10:50 pm72 °FClear.2 mph61%29.92 "Hg10 mi
10:20 pm73 °FClear.2 mph57%29.92 "Hg10 mi
9:50 pm72 °FClear.2 mph61%29.92 "Hg10 mi
Weather by CustomWeather, © 2021

See weather overview